| time (UTC) | temp C | wind direction | speed KPH | gust KPH | rain 1hr cm | rain 24hr cm | rain mn cm | humidity % | barometer mb |
| 20260504045505 | 1 | 206 | 0.0 | 0.0 | 0.00 | 0.00 | 0.00 | 86 | 1014.9 |
| 20260504045005 | 1 | 206 | 0.0 | 0.0 | 0.00 | 0.00 | 0.00 | 86 | 1014.9 |
| 20260504044522 | 1 | 206 | 0.0 | 0.0 | 0.00 | 0.00 | 0.00 | 85 | 1014.9 |
| 20260504044006 | 1 | 206 | 0.0 | 0.0 | 0.00 | 0.00 | 0.00 | 85 | 1014.9 |
| 20260504043507 | 1 | 206 | 0.0 | 0.0 | 0.00 | 0.00 | 0.00 | 85 | 1014.9 |
| 20260504043026 | 1 | 206 | 0.0 | 0.0 | 0.00 | 0.00 | 0.00 | 85 | 1014.9 |
| 20260504042507 | 1 | 206 | 0.0 | 0.0 | 0.00 | 0.00 | 0.00 | 85 | 1014.9 |
| 20260504042007 | 1 | 206 | 0.0 | 0.0 | 0.00 | 0.00 | 0.00 | 84 | 1014.7 |
| 20260504041526 | 1 | 206 | 0.0 | 0.0 | 0.00 | 0.00 | 0.00 | 85 | 1014.9 |
| 20260504041004 | 1 | 206 | 0.0 | 0.0 | 0.00 | 0.00 | 0.00 | 85 | 1014.9 |
| 20260504040504 | 1 | 206 | 0.0 | 0.0 | 0.00 | 0.00 | 0.00 | 83 | 1015.0 |
| 20260504040016 | 1 | 206 | 0.0 | 0.0 | 0.00 | 0.00 | 0.00 | 83 | 1015.0 |
| 20260504035508 | 2 | 206 | 0.0 | 0.0 | 0.00 | 0.00 | 0.00 | 83 | 1015.0 |
| 20260504035005 | 2 | 206 | 0.0 | 0.0 | 0.00 | 0.00 | 0.00 | 84 | 1015.0 |
| 20260504034522 | 2 | 206 | 0.0 | 0.0 | 0.00 | 0.00 | 0.00 | 82 | 1015.0 |
| 20260504034010 | 2 | 206 | 0.0 | 0.0 | 0.00 | 0.00 | 0.00 | 82 | 1015.0 |
| 20260504033506 | 2 | 206 | 0.0 | 0.0 | 0.00 | 0.00 | 0.00 | 81 | 1015.0 |
| 20260504033025 | 2 | 206 | 0.0 | 0.0 | 0.00 | 0.00 | 0.00 | 81 | 1015.1 |
| 20260504032508 | 2 | 206 | 0.0 | 0.0 | 0.00 | 0.00 | 0.00 | 80 | 1015.1 |
| 20260504032009 | 2 | 206 | 0.0 | 0.0 | 0.00 | 0.00 | 0.00 | 80 | 1015.0 |
| 20260504031528 | 2 | 206 | 0.0 | 0.0 | 0.00 | 0.00 | 0.00 | 81 | 1015.0 |
| 20260504031007 | 2 | 206 | 0.0 | 0.0 | 0.00 | 0.00 | 0.00 | 83 | 1015.0 |
| 20260504030507 | 2 | 203 | 0.0 | 0.0 | 0.00 | 0.00 | 0.00 | 80 | 1015.0 |
| 20260504030027 | 2 | 203 | 0.0 | 0.0 | 0.00 | 0.00 | 0.00 | 79 | 1015.0 |
| 20260504025504 | 2 | 203 | 0.0 | 0.0 | 0.00 | 0.00 | 0.00 | 79 | 1015.0 |
| 20260504025007 | 2 | 203 | 0.0 | 0.0 | 0.00 | 0.00 | 0.00 | 79 | 1015.0 |
| 20260504024517 | 2 | 203 | 0.0 | 0.0 | 0.00 | 0.00 | 0.00 | 77 | 1015.1 |
| 20260504024005 | 3 | 203 | 0.0 | 0.0 | 0.00 | 0.00 | 0.00 | 77 | 1015.1 |
| 20260504023504 | 3 | 203 | 0.0 | 0.0 | 0.00 | 0.00 | 0.00 | 76 | 1015.1 |
| 20260504023023 | 3 | 203 | 0.0 | 0.0 | 0.00 | 0.00 | 0.00 | 76 | 1015.2 |
| 20260504022505 | 3 | 203 | 0.0 | 0.0 | 0.00 | 0.00 | 0.00 | 76 | 1015.1 |
| 20260504022008 | 3 | 203 | 0.0 | 0.0 | 0.00 | 0.00 | 0.00 | 75 | 1015.1 |
| 20260504021528 | 3 | 203 | 0.0 | 0.0 | 0.00 | 0.00 | 0.00 | 75 | 1015.1 |
| 20260504021009 | 3 | 203 | 0.0 | 0.0 | 0.00 | 0.00 | 0.00 | 75 | 1015.1 |
| 20260504020508 | 3 | 206 | 0.0 | 0.0 | 0.00 | 0.00 | 0.00 | 74 | 1015.0 |
| 20260504020029 | 4 | 206 | 0.0 | 0.0 | 0.00 | 0.00 | 0.00 | 73 | 1015.0 |
| 20260504015508 | 4 | 206 | 0.0 | 0.0 | 0.00 | 0.00 | 0.00 | 73 | 1015.0 |
| 20260504015016 | 4 | 206 | 0.0 | 0.0 | 0.00 | 0.00 | 0.00 | 74 | 1014.9 |
| 20260504014541 | 5 | 206 | 0.0 | 0.0 | 0.00 | 0.00 | 0.00 | 71 | 1015.0 |
| 20260504014006 | 5 | 206 | 0.0 | 0.0 | 0.00 | 0.00 | 0.00 | 71 | 1015.0 |
| 20260504013504 | 5 | 206 | 0.0 | 0.0 | 0.00 | 0.00 | 0.00 | 70 | 1015.0 |
| 20260504013022 | 5 | 206 | 0.0 | 0.0 | 0.00 | 0.00 | 0.00 | 69 | 1014.9 |
| 20260504012508 | 5 | 224 | 0.0 | 0.0 | 0.00 | 0.00 | 0.00 | 68 | 1014.7 |
| 20260504012008 | 6 | 214 | 0.0 | 0.0 | 0.00 | 0.00 | 0.00 | 67 | 1014.7 |
| 20260504011522 | 6 | 214 | 0.0 | 0.0 | 0.00 | 0.00 | 0.00 | 65 | 1014.7 |
| 20260504011010 | 6 | 214 | 0.0 | 0.0 | 0.00 | 0.00 | 0.00 | 63 | 1014.7 |
| 20260504010513 | 7 | 132 | 0.0 | 0.0 | 0.00 | 0.00 | 0.00 | 62 | 1014.7 |
| 20260504010027 | 7 | 132 | 0.0 | 0.0 | 0.00 | 0.00 | 0.00 | 61 | 1014.7 |
| 20260504005509 | 8 | 132 | 0.0 | 0.0 | 0.00 | 0.00 | 0.00 | 59 | 1014.7 |
| 20260504005010 | 8 | 132 | 0.0 | 3.2 | 0.00 | 0.00 | 0.00 | 56 | 1014.7 |
| 20260504004528 | 8 | 132 | 0.0 | 3.2 | 0.00 | 0.00 | 0.00 | 55 | 1014.6 |
| 20260504004008 | 9 | 135 | 0.0 | 3.2 | 0.00 | 0.00 | 0.00 | 51 | 1014.6 |
| 20260504003507 | 10 | 146 | 0.0 | 4.8 | 0.00 | 0.00 | 0.00 | 49 | 1014.4 |
| 20260504003017 | 10 | 147 | 1.6 | 4.8 | 0.00 | 0.00 | 0.00 | 46 | 1014.4 |
| 20260504002504 | 10 | 178 | 1.6 | 6.4 | 0.00 | 0.00 | 0.00 | 45 | 1014.4 |
| 20260504002005 | 10 | 105 | 3.2 | 6.4 | 0.00 | 0.00 | 0.00 | 44 | 1014.4 |
| 20260504001504 | 10 | 160 | 1.6 | 12.9 | 0.00 | 0.00 | 0.00 | 43 | 1014.3 |
| 20260504001003 | 10 | 119 | 4.8 | 16.1 | 0.00 | 0.00 | 0.00 | 43 | 1014.4 |
| 20260504000502 | 10 | 151 | 8.0 | 16.1 | 0.00 | 0.00 | 0.00 | 42 | 1014.3 |
| 20260504000006 | 11 | 204 | 4.8 | 16.1 | 0.00 | 0.00 | 0.00 | 43 | 1014.4 |
| 20260503235504 | 11 | 165 | 6.4 | 16.1 | 0.00 | 0.00 | 0.00 | 42 | 1014.4 |
| 20260503235003 | 11 | 82 | 8.0 | 14.5 | 0.00 | 0.00 | 0.00 | 41 | 1014.3 |
| 20260503234512 | 11 | 210 | 6.4 | 17.7 | 0.00 | 0.00 | 0.00 | 41 | 1014.3 |
| 20260503234004 | 11 | 150 | 11.3 | 22.5 | 0.00 | 0.00 | 0.00 | 41 | 1014.3 |
| 20260503233504 | 11 | 163 | 8.0 | 24.1 | 0.00 | 0.00 | 0.00 | 41 | 1014.4 |
| 20260503233019 | 11 | 165 | 9.7 | 24.1 | 0.00 | 0.00 | 0.00 | 40 | 1014.4 |
| 20260503232504 | 11 | 111 | 9.7 | 22.5 | 0.00 | 0.00 | 0.00 | 40 | 1014.4 |
| 20260503232007 | 11 | 183 | 6.4 | 12.9 | 0.00 | 0.00 | 0.00 | 41 | 1014.4 |
| 20260503231520 | 11 | 220 | 6.4 | 16.1 | 0.00 | 0.00 | 0.00 | 40 | 1014.4 |
| 20260503231006 | 11 | 163 | 8.0 | 24.1 | 0.00 | 0.00 | 0.00 | 39 | 1014.4 |
| 20260503230504 | 11 | 214 | 9.7 | 24.1 | 0.00 | 0.00 | 0.00 | 39 | 1014.5 |
| 20260503230006 | 11 | 144 | 14.5 | 24.1 | 0.00 | 0.00 | 0.00 | 39 | 1014.5 |
| 20260503225504 | 11 | 200 | 11.3 | 27.4 | 0.00 | 0.00 | 0.00 | 39 | 1014.6 |
| 20260503225003 | 12 | 155 | 12.9 | 27.4 | 0.00 | 0.00 | 0.00 | 39 | 1014.6 |
| 20260503224507 | 12 | 212 | 11.3 | 19.3 | 0.00 | 0.00 | 0.00 | 39 | 1014.5 |
| 20260503224005 | 12 | 183 | 11.3 | 19.3 | 0.00 | 0.00 | 0.00 | 40 | 1014.5 |
| 20260503223503 | 12 | 210 | 8.0 | 29.0 | 0.00 | 0.00 | 0.00 | 39 | 1014.6 |
| 20260503223014 | 12 | 218 | 14.5 | 29.0 | 0.00 | 0.00 | 0.00 | 40 | 1014.6 |
| 20260503222504 | 12 | 203 | 11.3 | 22.5 | 0.00 | 0.00 | 0.00 | 39 | 1014.6 |
| 20260503222004 | 12 | 201 | 6.4 | 16.1 | 0.00 | 0.00 | 0.00 | 39 | 1014.5 |
| 20260503221519 | 12 | 207 | 6.4 | 17.7 | 0.00 | 0.00 | 0.00 | 38 | 1014.4 |
| 20260503221006 | 12 | 156 | 8.0 | 19.3 | 0.00 | 0.00 | 0.00 | 39 | 1014.5 |
| 20260503220506 | 12 | 154 | 12.9 | 22.5 | 0.00 | 0.00 | 0.00 | 38 | 1014.5 |
| 20260503220025 | 12 | 169 | 16.1 | 27.4 | 0.00 | 0.00 | 0.00 | 36 | 1014.5 |
| 20260503215503 | 12 | 233 | 12.9 | 27.4 | 0.00 | 0.00 | 0.00 | 37 | 1014.5 |
| 20260503215003 | 12 | 241 | 9.7 | 24.1 | 0.00 | 0.00 | 0.00 | 39 | 1014.5 |
| 20260503214521 | 12 | 182 | 9.7 | 27.4 | 0.00 | 0.00 | 0.00 | 41 | 1014.6 |
| 20260503214002 | 12 | 120 | 11.3 | 27.4 | 0.00 | 0.00 | 0.00 | 39 | 1014.6 |
| 20260503213504 | 12 | 195 | 14.5 | 27.4 | 0.00 | 0.00 | 0.00 | 38 | 1014.6 |
| 20260503213011 | 12 | 238 | 11.3 | 25.7 | 0.00 | 0.00 | 0.00 | 39 | 1014.6 |
| 20260503212504 | 12 | 210 | 14.5 | 32.2 | 0.00 | 0.00 | 0.00 | 40 | 1014.6 |
| 20260503212005 | 12 | 211 | 14.5 | 32.2 | 0.00 | 0.00 | 0.00 | 38 | 1014.6 |
| 20260503211515 | 12 | 184 | 9.7 | 25.7 | 0.00 | 0.00 | 0.00 | 39 | 1014.6 |
| 20260503211004 | 12 | 125 | 12.9 | 29.0 | 0.00 | 0.00 | 0.00 | 39 | 1014.6 |
| 20260503210504 | 12 | 155 | 12.9 | 29.0 | 0.00 | 0.00 | 0.00 | 39 | 1014.7 |
| 20260503210038 | 12 | 212 | 16.1 | 27.4 | 0.00 | 0.00 | 0.00 | 41 | 1014.7 |
| 20260503205509 | 11 | 221 | 9.7 | 24.1 | 0.00 | 0.00 | 0.00 | 40 | 1014.7 |
| 20260503205007 | 11 | 213 | 14.5 | 24.1 | 0.00 | 0.00 | 0.00 | 40 | 1014.8 |
| 20260503204526 | 11 | 158 | 9.7 | 25.7 | 0.00 | 0.00 | 0.00 | 40 | 1014.7 |
| 20260503204003 | 12 | 187 | 11.3 | 25.7 | 0.00 | 0.00 | 0.00 | 38 | 1014.7 |
| 20260503203503 | 12 | 207 | 9.7 | 24.1 | 0.00 | 0.00 | 0.00 | 40 | 1014.7 |
| 20260503203014 | 11 | 136 | 14.5 | 24.1 | 0.00 | 0.00 | 0.00 | 40 | 1014.9 |
| 20260503202504 | 11 | 213 | 11.3 | 24.1 | 0.00 | 0.00 | 0.00 | 40 | 1014.9 |
| 20260503202003 | 11 | 160 | 12.9 | 22.5 | 0.00 | 0.00 | 0.00 | 40 | 1014.9 |
| 20260503201513 | 11 | 170 | 8.0 | 29.0 | 0.00 | 0.00 | 0.00 | 42 | 1015.0 |
| 20260503201008 | 11 | 218 | 12.9 | 29.0 | 0.00 | 0.00 | 0.00 | 40 | 1015.1 |
| 20260503200507 | 11 | 180 | 14.5 | 25.7 | 0.00 | 0.00 | 0.00 | 41 | 1015.1 |
| 20260503200022 | 11 | 206 | 12.9 | 24.1 | 0.00 | 0.00 | 0.00 | 40 | 1015.1 |
| 20260503195504 | 11 | 201 | 14.5 | 24.1 | 0.00 | 0.00 | 0.00 | 41 | 1015.2 |
| 20260503195005 | 11 | 222 | 9.7 | 22.5 | 0.00 | 0.00 | 0.00 | 40 | 1015.3 |
| 20260503194523 | 11 | 207 | 4.8 | 20.9 | 0.00 | 0.00 | 0.00 | 43 | 1015.3 |
| 20260503194008 | 11 | 230 | 9.7 | 32.2 | 0.00 | 0.00 | 0.00 | 40 | 1015.4 |
| 20260503193508 | 12 | 130 | 12.9 | 32.2 | 0.00 | 0.00 | 0.00 | 38 | 1015.4 |
| 20260503193011 | 12 | 234 | 16.1 | 30.6 | 0.00 | 0.00 | 0.00 | 41 | 1015.4 |
| 20260503192504 | 11 | 108 | 11.3 | 24.1 | 0.00 | 0.00 | 0.00 | 39 | 1015.3 |
| 20260503192004 | 11 | 221 | 8.0 | 17.7 | 0.00 | 0.00 | 0.00 | 39 | 1015.4 |
| 20260503191513 | 11 | 129 | 8.0 | 29.0 | 0.00 | 0.00 | 0.00 | 41 | 1015.5 |
| 20260503191004 | 11 | 198 | 17.7 | 29.0 | 0.00 | 0.00 | 0.00 | 40 | 1015.7 |
| 20260503190506 | 11 | 178 | 16.1 | 35.4 | 0.00 | 0.00 | 0.00 | 40 | 1015.6 |
| 20260503190017 | 11 | 189 | 17.7 | 35.4 | 0.00 | 0.00 | 0.00 | 39 | 1015.8 |
| 20260503185507 | 11 | 111 | 12.9 | 24.1 | 0.00 | 0.00 | 0.00 | 38 | 1015.7 |
| 20260503185008 | 12 | 219 | 14.5 | 24.1 | 0.00 | 0.00 | 0.00 | 38 | 1015.8 |
| 20260503184527 | 11 | 174 | 6.4 | 29.0 | 0.00 | 0.00 | 0.00 | 41 | 1015.8 |
| 20260503184011 | 11 | 201 | 20.9 | 33.8 | 0.00 | 0.00 | 0.00 | 41 | 1015.9 |
| 20260503183508 | 11 | 210 | 16.1 | 33.8 | 0.00 | 0.00 | 0.00 | 43 | 1016.1 |
| 20260503183026 | 11 | 182 | 12.9 | 30.6 | 0.00 | 0.00 | 0.00 | 39 | 1016.0 |
| 20260503182510 | 11 | 207 | 16.1 | 29.0 | 0.00 | 0.00 | 0.00 | 39 | 1016.0 |
| 20260503182004 | 11 | 233 | 8.0 | 27.4 | 0.00 | 0.00 | 0.00 | 44 | 1016.1 |
| 20260503181513 | 11 | 167 | 14.5 | 37.0 | 0.00 | 0.00 | 0.00 | 40 | 1016.2 |
| 20260503181004 | 11 | 179 | 19.3 | 37.0 | 0.00 | 0.00 | 0.00 | 42 | 1016.1 |
| 20260503180503 | 11 | 158 | 12.9 | 27.4 | 0.00 | 0.00 | 0.00 | 41 | 1016.2 |
| 20260503180015 | 11 | 241 | 14.5 | 24.1 | 0.00 | 0.00 | 0.00 | 41 | 1016.2 |
| 20260503175504 | 10 | 227 | 12.9 | 24.1 | 0.00 | 0.00 | 0.00 | 42 | 1016.1 |
| 20260503175003 | 10 | 179 | 14.5 | 29.0 | 0.00 | 0.00 | 0.00 | 40 | 1016.3 |
| 20260503174522 | 10 | 243 | 9.7 | 30.6 | 0.00 | 0.00 | 0.00 | 45 | 1016.2 |
| 20260503174006 | 10 | 229 | 16.1 | 30.6 | 0.00 | 0.00 | 0.00 | 43 | 1016.4 |
| 20260503173508 | 10 | 211 | 16.1 | 29.0 | 0.00 | 0.00 | 0.00 | 42 | 1016.4 |
| 20260503173024 | 10 | 165 | 16.1 | 29.0 | 0.00 | 0.00 | 0.00 | 41 | 1016.5 |
| 20260503172507 | 10 | 193 | 12.9 | 30.6 | 0.00 | 0.00 | 0.00 | 44 | 1016.6 |
| 20260503172012 | 9 | 186 | 16.1 | 30.6 | 0.00 | 0.00 | 0.00 | 42 | 1016.6 |
| 20260503171527 | 10 | 139 | 12.9 | 32.2 | 0.00 | 0.00 | 0.00 | 43 | 1016.6 |
| 20260503171003 | 9 | 210 | 11.3 | 32.2 | 0.00 | 0.00 | 0.00 | 43 | 1016.6 |
| 20260503170504 | 10 | 219 | 16.1 | 27.4 | 0.00 | 0.00 | 0.00 | 41 | 1016.7 |
| 20260503151003 | 7 | 237 | 12.9 | 30.6 | 0.00 | 0.00 | 0.00 | 47 | 1017.4 |
| 20260503150503 | 7 | 186 | 9.7 | 24.1 | 0.00 | 0.00 | 0.00 | 50 | 1017.4 |
| 20260503131005 | 5 | 197 | 9.7 | 22.5 | 0.00 | 0.00 | 0.00 | 63 | 1017.4 |
| 20260503130504 | 5 | 194 | 8.0 | 30.6 | 0.00 | 0.00 | 0.00 | 63 | 1017.4 |
| 20260503110506 | -1 | 222 | 0.0 | 0.0 | 0.00 | 0.00 | 0.00 | 90 | 1016.8 |
| 20260503090504 | -1 | 222 | 0.0 | 0.0 | 0.00 | 0.00 | 0.00 | 87 | 1015.9 |
| 20260503081543 | -1 | 222 | 0.0 | 0.0 | 0.00 | 0.00 | 0.00 | 86 | 1015.8 |
| 20260503081007 | -1 | 222 | 0.0 | 0.0 | 0.00 | 0.00 | 0.00 | 87 | 1015.7 |
| 20260503080510 | -1 | 222 | 0.0 | 0.0 | 0.00 | 0.00 | 0.00 | 87 | 1015.7 |
| 20260503072507 | -1 | 222 | 0.0 | 0.0 | 0.00 | 0.00 | 0.00 | 85 | 1015.4 |
| 20260503072009 | 0 | 222 | 0.0 | 0.0 | 0.00 | 0.00 | 0.00 | 84 | 1015.4 |
| 20260503071535 | 0 | 222 | 0.0 | 0.0 | 0.00 | 0.00 | 0.00 | 84 | 1015.4 |
| 20260503071009 | 0 | 222 | 0.0 | 0.0 | 0.00 | 0.00 | 0.00 | 82 | 1015.3 |
| 20260503070504 | 0 | 222 | 0.0 | 0.0 | 0.00 | 0.00 | 0.00 | 82 | 1015.3 |
| 20260503055003 | 0 | 220 | 1.6 | 3.2 | 0.00 | 0.00 | 0.00 | 79 | 1015.4 |
| 20260503054528 | 1 | 220 | 0.0 | 3.2 | 0.00 | 0.00 | 0.00 | 78 | 1015.4 |
| 20260503054003 | 1 | 220 | 1.6 | 4.8 | 0.00 | 0.00 | 0.00 | 78 | 1015.4 |
| 20260503053504 | 1 | 216 | 3.2 | 4.8 | 0.00 | 0.00 | 0.00 | 78 | 1015.4 |
| 20260503053020 | 1 | 214 | 1.6 | 4.8 | 0.00 | 0.00 | 0.00 | 77 | 1015.4 |
| 20260503052509 | 1 | 237 | 3.2 | 4.8 | 0.00 | 0.00 | 0.00 | 77 | 1015.5 |
| 20260503052009 | 1 | 217 | 3.2 | 6.4 | 0.00 | 0.00 | 0.00 | 77 | 1015.4 |
| 20260503051521 | 1 | 214 | 1.6 | 6.4 | 0.00 | 0.00 | 0.00 | 76 | 1015.5 |
| 20260503051005 | 1 | 185 | 0.0 | 3.2 | 0.00 | 0.00 | 0.00 | 76 | 1015.6 |
| 20260503050511 | 1 | 210 | 0.0 | 0.0 | 0.00 | 0.00 | 0.00 | 76 | 1015.6 |
| 20260503050026 | 1 | 210 | 0.0 | 3.2 | 0.00 | 0.00 | 0.00 | 75 | 1015.6 |